"Pseudo-MPEC" for P11bV3g

Created 2021 Jan 18 8:07:21 UT using Find_Orb

Click here for an explanation of pseudo-MPECs

 
 Astrometry: 
     P11bV3g  C2021 01 12WiELhWo7CAstrometrycredacted;`1w\2VDEv;Got^C!D`+?=tdF51
     P11bV3g  C2021 01 12C=u9TrVn)-Qodun`k;V`in]clickkhere8CPW:Jv8AKQODaD'IOwF51
     P11bV3g  C2021 01 123JkM;a)UPR8uj5%forHP*xhKIsUG4yO](LJ,qw2explanation[WF51
     P11bV3g ^C2021 01 15.45708910 22 16.828+50 38 43.82   ~1FDq 22.08GVNEOCP568
     P11bV3g ^C2021 01 15.45864910 22 16.692+50 38 44.59   ~1FDq 22.24GVNEOCP568
     P11bV3g ^C2021 01 15.46021110 22 16.554+50 38 45.39   ~1FDq 22.16GVNEOCP568

Station data:
(568) Mauna Kea  (N19.826116 W155.472200)  US/Hawaii.
(F51) Pan-STARRS 1, Haleakala  (N20.707235 W156.255910)  US/Hawaii.
   Observers N. Primak, A. Schultz, S. Watters, J. Thiel, T. Goggia. Measurer
   PS1 Science Consortium. 1.8-m Ritchey-Chrétien + CCD.

Orbital elements:  P11bV3g
   Perihelion 2020 Aug 9.634331 +/- 410.665 TT = 15:13:26 (JD 2459071.134331)
Epoch 2021 Jan 15.0 TT = JDT 2459229.5   Earth MOID: 0.4980   Ma: 0.0905
M  60.59544635 +/- 90.722567        (J2000 ecliptic)          AutoNEOCP
n   0.38262993 +/- 0.219203         Peri.   20.48409 +/- 57.699940
a   1.87910082 +/- 0.717661         Node    18.77899 +/- 46.931026
e   0.2097941 +/- 0.267884          Incl.   18.67261 +/- 48.449379
P   2.58/940.84d           H 20.6   G  0.15   U 11.7  SR
q 1.48487648 +/- 1.2455    Q 2.27332517 +/- 27.8279
From 6 observations 2021 Jan. 12-15; mean residual 0".09
Residuals in arcseconds: 
210112 F51  .13-  .06+    210112 F51  .13+  .18-    210115 568  .01+  .01-    
210112 F51  .01+  .12+    210115 568  .05-  .02+    210115 568  .04+  .01-    

Ephemerides (geocentric):
Date (UTC) HH   RA              Dec         delta   r     elong  mag " sig PA
---- -- -- --  -------------   -----------  ------ ------ -----  --- ---- ---
2021 01 18 08  10 17 53.636   +51 00 29.98  .89896 1.7664 139.4 22.6  222 178
2021 01 18 09  10 17 49.593   +51 00 47.40  .89894 1.7665 139.5 22.6  227 178
2021 01 18 10  10 17 45.544   +51 01 04.77  .89893 1.7666 139.5 22.6  232 178
2021 01 18 11  10 17 41.487   +51 01 22.09  .89892 1.7667 139.5 22.6  237 178
2021 01 18 12  10 17 37.425   +51 01 39.36  .89891 1.7668 139.5 22.6  242 178
2021 01 18 13  10 17 33.356   +51 01 56.59  .89890 1.7670 139.6 22.6  247 178
2021 01 18 14  10 17 29.280   +51 02 13.77  .89889 1.7671 139.6 22.6  252 178
2021 01 18 15  10 17 25.198   +51 02 30.91  .89888 1.7672 139.6 22.6  258 178
2021 01 18 16  10 17 21.109   +51 02 47.99  .89887 1.7673 139.6 22.6  263 178
2021 01 18 17  10 17 17.014   +51 03 05.03  .89886 1.7674 139.6 22.6  268 178
2021 01 18 18  10 17 12.913   +51 03 22.02  .89885 1.7675 139.7 22.6  274 178
2021 01 18 19  10 17 08.805   +51 03 38.96  .89884 1.7676 139.7 22.6  279 178
2021 01 18 20  10 17 04.691   +51 03 55.85  .89883 1.7677 139.7 22.6  285 178
2021 01 18 21  10 17 00.570   +51 04 12.70  .89882 1.7678 139.7 22.6  290 178
2021 01 18 22  10 16 56.443   +51 04 29.49  .89881 1.7680 139.7 22.6  296 178
2021 01 18 23  10 16 52.309   +51 04 46.24  .89880 1.7681 139.8 22.6  302 178
2021 01 19 00  10 16 48.169   +51 05 02.94  .89880 1.7682 139.8 22.6  308 178
2021 01 19 01  10 16 44.023   +51 05 19.59  .89879 1.7683 139.8 22.6  314 178
2021 01 19 02  10 16 39.871   +51 05 36.19  .89878 1.7684 139.8 22.6  320 178
2021 01 19 03  10 16 35.712   +51 05 52.74  .89877 1.7685 139.8 22.6  326 178
2021 01 19 04  10 16 31.547   +51 06 09.25  .89877 1.7686 139.9 22.6  332 178
2021 01 19 05  10 16 27.375   +51 06 25.70  .89876 1.7687 139.9 22.6  338 178
2021 01 19 06  10 16 23.197   +51 06 42.11  .89875 1.7689 139.9 22.6  344 178
2021 01 19 07  10 16 19.013   +51 06 58.47  .89875 1.7690 139.9 22.6  350 178
2021 01 19 08  10 16 14.823   +51 07 14.77  .89874 1.7691 139.9 22.6  356 178
2021 01 19 09  10 16 10.626   +51 07 31.03  .89874 1.7692 140.0 22.6  363 178
2021 01 19 10  10 16 06.423   +51 07 47.24  .89873 1.7693 140.0 22.6  369 178
2021 01 19 11  10 16 02.214   +51 08 03.40  .89873 1.7694 140.0 22.6  376 178
2021 01 19 12  10 15 57.999   +51 08 19.50  .89872 1.7695 140.0 22.6  382 178
2021 01 19 13  10 15 53.777   +51 08 35.56  .89872 1.7696 140.0 22.6  389 178
2021 01 19 14  10 15 49.549   +51 08 51.57  .89872 1.7698 140.1 22.6  395 178
2021 01 19 15  10 15 45.315   +51 09 07.53  .89871 1.7699 140.1 22.6  402 178
2021 01 19 16  10 15 41.075   +51 09 23.44  .89871 1.7700 140.1 22.6  409 178
2021 01 19 17  10 15 36.829   +51 09 39.30  .89871 1.7701 140.1 22.6  416 178
2021 01 19 18  10 15 32.576   +51 09 55.10  .89870 1.7702 140.1 22.6  423 178
2021 01 19 19  10 15 28.318   +51 10 10.86  .89870 1.7703 140.2 22.6  430 178
2021 01 19 20  10 15 24.053   +51 10 26.57  .89870 1.7704 140.2 22.6  437 178
2021 01 19 21  10 15 19.782   +51 10 42.22  .89870 1.7705 140.2 22.6  444 178
2021 01 19 22  10 15 15.505   +51 10 57.83  .89870 1.7706 140.2 22.6  451 178
2021 01 19 23  10 15 11.222   +51 11 13.38  .89870 1.7708 140.2 22.6  458 178
2021 01 20 00  10 15 06.933   +51 11 28.89  .89870 1.7709 140.3 22.6  465 178
2021 01 20 01  10 15 02.638   +51 11 44.34  .89869 1.7710 140.3 22.6  473 178
2021 01 20 02  10 14 58.337   +51 11 59.74  .89869 1.7711 140.3 22.6  480 178
2021 01 20 03  10 14 54.029   +51 12 15.09  .89869 1.7712 140.3 22.6  487 178
2021 01 20 04  10 14 49.716   +51 12 30.39  .89869 1.7713 140.3 22.6  495 178
2021 01 20 05  10 14 45.397   +51 12 45.64  .89870 1.7714 140.4 22.6  503 178
2021 01 20 06  10 14 41.072   +51 13 00.83  .89870 1.7715 140.4 22.6  510 178
2021 01 20 07  10 14 36.740   +51 13 15.98  .89870 1.7717 140.4 22.6  518 178